CZ-6A DEB, 54986

Orbit data source: Space-Track

CZ-6A DEB, 54986 is space debris in SSO originally from a launch on Fri, 11 Nov 2022 UTC launched from the Taiyaun Space Center, China (TSC). Debris objects in space refer to the collection of defunct objects orbiting the Earth. Examples of debris include non-operational satellites, rocket bodies, and fragments generated from explosions, collisions, or faulty payload assembly.

Loading next visibility...
Identifier
54986, 2022-151UB
Orbit
SSO
Country
Flag of CNCN / PRC
Related business
Manufacturer
SAST
Mission
Spacecraft
Bus & Motor
Unknown
Mass
Unknown
Launch date (UTC)
2022-11-11 (4 years ago)
Launch vehicle
Unknown
Launch site
Taiyaun Space Center, China (TSC)
Object type
Payload
Rocket body
Debris
Shape & HBR
Unknown shape, 0.1 m
Radar Cross Section
Medium (>0.1 m² and <1 m²)

Expand to show TLE details & history
Last TLE update: 2 days ago

TLE from 2 days ago
0 CZ-6A DEB
1 54986U 22151UB  26171.30569966  .00001686  00000-0  80111-3 0  9999
2 54986  98.8102 179.2257 0038164 284.0939  75.5997 14.20452172184814
Epoch: 2026-06-20T07:20Z
TLE epoch observation values (Epoch: 2026-06-20T07:20:12.450Z)
Latitude
-0.00005°
Longitude
160.65161°
Altitude
819.998 km
Speed
7.447 km/s
True Right ascension
11h 56m 54s
True Declination
0° 00' 00"
Sunlit
Object was in daylight at epoch
Visualization orbit readout
Latitude
Unknown
Longitude
Unknown
Altitude
Unknown
Speed
Unknown
Apparent Right ascension
Unknown
Apparent Declination
Unknown
Sunlit
N/A
Visualization observer readout
Local Sidereal Time
21:35:56
Azimuth
Unknown
Elevation
Unknown
Doppler factor
Unknown
Orbital elements
Apogee altitude
848.461 km
Perigee altitude
793.512 km
Semi-major axis
7,199.124 km
Eccentricity
0.00382
Inclination
98.8102°
RAAN
179.2257°
Arg. of periapsis
284.0939°
True anomaly
76.02379°
Mean anomaly
75.5997°
Eccentric anomaly
75.81169°
Mean motion
3.55323 °/min
Orbital period
101.32 mins
BSTAR
0.00080111
Loading maneuver chart data...
Computing Atmospheric mass density...
Loading historical data...
Loading historical data...
Loading historical data...
Loading historical data...
Loading historical data...
Loading historical data...
Loading historical data...

Documentation

Showing up to 5 results
|